Time,TemperatureF,DewpointF,PressureIn,WindDirection,WindDirectionDegrees,WindSpeedMPH,WindSpeedGustMPH,Humidity,HourlyPrecipIn,Conditions,Clouds,dailyrainin,SoftwareType,DateUTC
2013-06-06 00:02:00,68.0,63.0,29.93,NW,320,6.0,-999.0,82,-99.99,,,-99.99,,2013-06-06 05:02:00,
2013-06-06 00:12:00,68.0,63.0,29.93,NW,320,6.0,-999.0,82,-99.99,,,-99.99,,2013-06-06 05:12:00,
2013-06-06 00:22:00,66.0,63.0,29.92,NW,320,3.0,-999.0,88,-99.99,,,-99.99,,2013-06-06 05:22:00,
2013-06-06 00:32:00,66.0,63.0,29.92,NNW,330,5.0,-999.0,88,-99.99,,,-99.99,,2013-06-06 05:32:00,
2013-06-06 00:42:00,66.0,63.0,29.92,North,0,0.0,-999.0,88,-99.99,,,-99.99,,2013-06-06 05:42:00,
2013-06-06 00:52:00,66.0,63.0,29.92,North,0,0.0,-999.0,88,-99.99,,,-99.99,,2013-06-06 05:52:00,
2013-06-06 01:02:00,66.0,63.0,29.91,NNW,330,3.0,-999.0,88,-99.99,,,-99.99,,2013-06-06 06:02:00,
2013-06-06 01:12:00,66.0,63.0,29.91,NNW,330,3.0,-999.0,88,-99.99,,,-99.99,,2013-06-06 06:12:00,
2013-06-06 01:22:00,66.0,63.0,29.91,NW,320,3.0,-999.0,88,-99.99,,,-99.99,,2013-06-06 06:22:00,
2013-06-06 01:32:00,66.0,63.0,29.90,NW,320,5.0,-999.0,88,-99.99,,,-99.99,,2013-06-06 06:32:00,
2013-06-06 01:42:00,66.0,64.0,29.90,NW,320,5.0,-999.0,93,-99.99,,,-99.99,,2013-06-06 06:42:00,
2013-06-06 01:52:00,66.0,63.0,29.90,NW,320,6.0,-999.0,88,-99.99,,,-99.99,,2013-06-06 06:52:00,
2013-06-06 02:02:00,66.0,64.0,29.90,NNW,330,5.0,-999.0,93,-99.99,,,-99.99,,2013-06-06 07:02:00,
2013-06-06 02:12:00,66.0,64.0,29.90,NNW,330,5.0,-999.0,93,-99.99,,,-99.99,,2013-06-06 07:12:00,
2013-06-06 02:22:00,66.0,64.0,29.89,NNW,330,9.0,-999.0,93,-99.99,,,-99.99,,2013-06-06 07:22:00,
2013-06-06 02:32:00,66.0,64.0,29.89,NNW,340,10.0,-999.0,93,-99.99,,,-99.99,,2013-06-06 07:32:00,
2013-06-06 02:42:00,66.0,63.0,29.89,NNW,340,9.0,-999.0,88,-99.99,,,-99.99,,2013-06-06 07:42:00,
2013-06-06 02:52:00,66.0,63.0,29.88,North,350,10.0,-999.0,88,-99.99,,,-99.99,,2013-06-06 07:52:00,
2013-06-06 03:02:00,66.0,63.0,29.88,North,350,6.0,-999.0,88,-99.99,,,-99.99,,2013-06-06 08:02:00,
2013-06-06 03:12:00,66.0,63.0,29.88,North,350,6.0,-999.0,88,-99.99,,,-99.99,,2013-06-06 08:12:00,
2013-06-06 03:22:00,66.0,63.0,29.88,NNW,340,5.0,-999.0,88,-99.99,,,-99.99,,2013-06-06 08:22:00,
2013-06-06 03:32:00,66.0,63.0,29.88,NNW,340,7.0,-999.0,88,-99.99,,,-99.99,,2013-06-06 08:32:00,
2013-06-06 03:42:00,64.0,63.0,29.88,North,350,6.0,-999.0,93,-99.99,,,-99.99,,2013-06-06 08:42:00,
2013-06-06 03:52:00,64.0,63.0,29.88,NNW,340,8.0,-999.0,93,-99.99,,,-99.99,,2013-06-06 08:52:00,
2013-06-06 04:02:00,64.0,63.0,29.87,North,350,9.0,-999.0,93,-99.99,,,-99.99,,2013-06-06 09:02:00,
2013-06-06 04:12:00,64.0,63.0,29.87,North,350,9.0,-999.0,93,-99.99,,,-99.99,,2013-06-06 09:12:00,
2013-06-06 04:22:00,64.0,63.0,29.88,NNW,340,9.0,-999.0,93,-99.99,,,-99.99,,2013-06-06 09:22:00,
2013-06-06 04:33:00,64.0,63.0,29.88,NNW,340,9.0,16.0,93,-99.99,,,-99.99,,2013-06-06 09:33:00,
2013-06-06 04:43:00,64.0,63.0,29.87,North,350,7.0,-999.0,93,-99.99,,,-99.99,,2013-06-06 09:43:00,
2013-06-06 04:53:00,64.0,63.0,29.88,North,350,6.0,-999.0,93,-99.99,,,-99.99,,2013-06-06 09:53:00,
2013-06-06 05:03:00,64.0,63.0,29.88,NNW,330,8.0,-999.0,93,-99.99,,,-99.99,,2013-06-06 10:03:00,
2013-06-06 05:12:00,64.0,63.0,29.88,NNW,330,8.0,-999.0,93,-99.99,,,-99.99,,2013-06-06 10:12:00,
2013-06-06 05:22:00,64.0,63.0,29.88,North,350,6.0,-999.0,93,-99.99,,,-99.99,,2013-06-06 10:22:00,
2013-06-06 05:33:00,64.0,63.0,29.88,North,350,7.0,-999.0,93,-99.99,,,-99.99,,2013-06-06 10:33:00,
2013-06-06 05:42:00,64.0,63.0,29.88,NNW,340,7.0,-999.0,93,-99.99,,,-99.99,,2013-06-06 10:42:00,
2013-06-06 05:53:00,64.0,63.0,29.89,NNW,330,7.0,-999.0,93,-99.99,,,-99.99,,2013-06-06 10:53:00,
2013-06-06 06:02:00,64.0,61.0,29.89,NNW,330,8.0,-999.0,88,-99.99,,,-99.99,,2013-06-06 11:02:00,
2013-06-06 06:12:00,64.0,61.0,29.89,NNW,330,8.0,-999.0,88,-99.99,,,-99.99,,2013-06-06 11:12:00,
2013-06-06 06:22:00,64.0,61.0,29.90,NNW,330,6.0,-999.0,88,-99.99,,,-99.99,,2013-06-06 11:22:00,
2013-06-06 06:32:00,64.0,61.0,29.90,NNW,330,3.0,-999.0,88,-99.99,,,-99.99,,2013-06-06 11:32:00,
2013-06-06 06:42:00,64.0,61.0,29.90,NNW,340,5.0,-999.0,88,-99.99,,,-99.99,,2013-06-06 11:42:00,
2013-06-06 06:52:00,64.0,61.0,29.91,NW,320,5.0,-999.0,88,-99.99,,,-99.99,,2013-06-06 11:52:00,
2013-06-06 07:02:00,64.0,61.0,29.91,NW,320,6.0,-999.0,88,-99.99,,,-99.99,,2013-06-06 12:02:00,
2013-06-06 07:12:00,64.0,61.0,29.91,NW,320,6.0,-999.0,88,-99.99,,,-99.99,,2013-06-06 12:12:00,
2013-06-06 07:22:00,64.0,61.0,29.91,NW,320,5.0,-999.0,88,-99.99,,,-99.99,,2013-06-06 12:22:00,
2013-06-06 07:33:00,64.0,61.0,29.90,North,350,3.0,-999.0,88,-99.99,,,-99.99,,2013-06-06 12:33:00,
2013-06-06 07:42:00,64.0,61.0,29.90,NNW,340,6.0,-999.0,88,-99.99,,,-99.99,,2013-06-06 12:42:00,
2013-06-06 07:53:00,64.0,61.0,29.90,North,350,5.0,-999.0,88,-99.99,,,-99.99,,2013-06-06 12:53:00,
2013-06-06 08:03:00,64.0,61.0,29.90,NNW,330,6.0,-999.0,88,-99.99,,,-99.99,,2013-06-06 13:03:00,
2013-06-06 08:12:00,64.0,61.0,29.90,NNW,330,6.0,-999.0,88,-99.99,,,-99.99,,2013-06-06 13:12:00,
2013-06-06 08:22:00,64.0,61.0,29.91,NW,320,8.0,-999.0,88,-99.99,,,-99.99,,2013-06-06 13:22:00,
2013-06-06 08:32:00,64.0,61.0,29.90,NW,320,6.0,-999.0,88,-99.99,,,-99.99,,2013-06-06 13:32:00,
2013-06-06 08:42:00,66.0,61.0,29.90,NNW,330,6.0,-999.0,82,-99.99,,,-99.99,,2013-06-06 13:42:00,
2013-06-06 08:53:00,66.0,61.0,29.91,NNW,340,3.0,-999.0,82,-99.99,,,-99.99,,2013-06-06 13:53:00,
2013-06-06 09:03:00,66.0,59.0,29.91,NNW,330,6.0,-999.0,77,-99.99,,,-99.99,,2013-06-06 14:03:00,
2013-06-06 09:12:00,66.0,59.0,29.91,NNW,330,6.0,-999.0,77,-99.99,,,-99.99,,2013-06-06 14:12:00,
2013-06-06 09:22:00,68.0,59.0,29.91,NNW,330,7.0,-999.0,72,-99.99,,,-99.99,,2013-06-06 14:22:00,
2013-06-06 09:33:00,70.0,59.0,29.91,North,350,6.0,-999.0,68,-99.99,,,-99.99,,2013-06-06 14:33:00,
2013-06-06 09:43:00,70.0,57.0,29.90,NNW,330,12.0,-999.0,64,-99.99,,,-99.99,,2013-06-06 14:43:00,
2013-06-06 09:53:00,70.0,57.0,29.91,WNW,300,7.0,-999.0,64,-99.99,,,-99.99,,2013-06-06 14:53:00,
2013-06-06 10:03:00,70.0,55.0,29.91,NNW,340,7.0,-999.0,60,-99.99,,,-99.99,,2013-06-06 15:03:00,
2013-06-06 10:12:00,70.0,55.0,29.91,NNW,340,7.0,-999.0,60,-99.99,,,-99.99,,2013-06-06 15:12:00,
2013-06-06 10:23:00,70.0,55.0,29.91,North,350,6.0,-999.0,60,-99.99,,,-99.99,,2013-06-06 15:23:00,
2013-06-06 10:33:00,72.0,54.0,29.90,NNW,340,7.0,-999.0,53,-99.99,,,-99.99,,2013-06-06 15:33:00,
2013-06-06 10:43:00,70.0,54.0,29.91,NW,310,9.0,-999.0,56,-99.99,,,-99.99,,2013-06-06 15:43:00,
2013-06-06 10:53:00,72.0,54.0,29.90,NNW,330,9.0,-999.0,53,-99.99,,,-99.99,,2013-06-06 15:53:00,
2013-06-06 11:03:00,72.0,50.0,29.90,NNW,330,8.0,-999.0,46,-99.99,,,-99.99,,2013-06-06 16:03:00,
2013-06-06 11:23:00,72.0,52.0,29.90,NNW,340,6.0,-999.0,49,-99.99,,,-99.99,,2013-06-06 16:23:00,
2013-06-06 11:33:00,73.0,48.0,29.90,NW,320,12.0,-999.0,40,-99.99,,,-99.99,,2013-06-06 16:33:00,
2013-06-06 11:43:00,73.0,48.0,29.90,WNW,290,10.0,-999.0,40,-99.99,,,-99.99,,2013-06-06 16:43:00,
2013-06-06 11:53:00,73.0,50.0,29.90,NW,320,12.0,16.0,43,-99.99,,,-99.99,,2013-06-06 16:53:00,
2013-06-06 12:03:00,73.0,50.0,29.90,NNW,330,9.0,-999.0,43,-99.99,,,-99.99,,2013-06-06 17:03:00,
2013-06-06 12:13:00,73.0,50.0,29.90,NNW,330,9.0,-999.0,43,-99.99,,,-99.99,,2013-06-06 17:13:00,
2013-06-06 12:22:00,73.0,50.0,29.90,NW,320,9.0,-999.0,43,-99.99,,,-99.99,,2013-06-06 17:22:00,
2013-06-06 12:33:00,73.0,50.0,29.91,NW,320,7.0,-999.0,43,-99.99,,,-99.99,,2013-06-06 17:33:00,
2013-06-06 12:42:00,73.0,50.0,29.90,NNW,330,10.0,20.0,43,-99.99,,,-99.99,,2013-06-06 17:42:00,
2013-06-06 12:53:00,73.0,50.0,29.90,NNW,340,8.0,16.0,43,-99.99,,,-99.99,,2013-06-06 17:53:00,
2013-06-06 13:03:00,73.0,50.0,29.90,NNW,340,8.0,-999.0,43,-99.99,,,-99.99,,2013-06-06 18:03:00,
2013-06-06 13:13:00,73.0,50.0,29.90,NNW,340,8.0,-999.0,43,-99.99,,,-99.99,,2013-06-06 18:13:00,
2013-06-06 13:23:00,75.0,48.0,29.90,NNW,330,12.0,-999.0,38,-99.99,,,-99.99,,2013-06-06 18:23:00,
2013-06-06 13:33:00,75.0,46.0,29.90,NW,320,12.0,18.0,35,-99.99,,,-99.99,,2013-06-06 18:33:00,
2013-06-06 13:43:00,75.0,46.0,29.90,NW,310,12.0,17.0,35,-99.99,,,-99.99,,2013-06-06 18:43:00,
2013-06-06 13:53:00,75.0,46.0,29.90,NW,310,12.0,20.0,35,-99.99,,,-99.99,,2013-06-06 18:53:00,
2013-06-06 14:03:00,75.0,48.0,29.90,NNW,340,14.0,18.0,38,-99.99,,,-99.99,,2013-06-06 19:03:00,
2013-06-06 14:12:00,75.0,48.0,29.90,NNW,340,14.0,18.0,38,-99.99,,,-99.99,,2013-06-06 19:12:00,
2013-06-06 14:23:00,75.0,46.0,29.90,NW,310,14.0,20.0,35,-99.99,,,-99.99,,2013-06-06 19:23:00,
2013-06-06 14:33:00,75.0,46.0,29.90,NW,320,8.0,16.0,35,-99.99,,,-99.99,,2013-06-06 19:33:00,
2013-06-06 14:42:00,75.0,48.0,29.90,WNW,300,10.0,-999.0,38,-99.99,,,-99.99,,2013-06-06 19:42:00,
2013-06-06 14:53:00,75.0,46.0,29.90,NNW,340,-999.0,-999.0,35,-99.99,,,-99.99,,2013-06-06 19:53:00,
2013-06-06 15:03:00,73.0,48.0,29.90,NNW,340,8.0,-999.0,40,-99.99,,,-99.99,,2013-06-06 20:03:00,
2013-06-06 15:13:00,73.0,48.0,29.90,NNW,340,8.0,-999.0,40,-99.99,,,-99.99,,2013-06-06 20:13:00,
2013-06-06 15:22:00,73.0,48.0,29.90,WNW,300,8.0,-999.0,40,-99.99,,,-99.99,,2013-06-06 20:22:00,
2013-06-06 15:33:00,75.0,48.0,29.90,NNW,330,7.0,-999.0,38,-99.99,,,-99.99,,2013-06-06 20:33:00,
2013-06-06 15:42:00,75.0,48.0,29.90,NW,320,8.0,-999.0,38,-99.99,,,-99.99,,2013-06-06 20:42:00,
2013-06-06 15:53:00,75.0,48.0,29.90,NNW,330,8.0,-999.0,38,-99.99,,,-99.99,,2013-06-06 20:53:00,
2013-06-06 16:03:00,75.0,50.0,29.90,NNW,330,7.0,-999.0,41,-99.99,,,-99.99,,2013-06-06 21:03:00,
2013-06-06 16:12:00,75.0,50.0,29.90,NNW,330,7.0,-999.0,41,-99.99,,,-99.99,,2013-06-06 21:12:00,
2013-06-06 16:22:00,75.0,48.0,29.90,NW,310,9.0,-999.0,38,-99.99,,,-99.99,,2013-06-06 21:22:00,
2013-06-06 16:33:00,75.0,48.0,29.89,WNW,290,10.0,16.0,38,-99.99,,,-99.99,,2013-06-06 21:33:00,
2013-06-06 16:43:00,75.0,48.0,29.89,WNW,300,8.0,-999.0,38,-99.99,,,-99.99,,2013-06-06 21:43:00,
2013-06-06 16:53:00,75.0,48.0,29.89,WNW,290,9.0,-999.0,38,-99.99,,,-99.99,,2013-06-06 21:53:00,
2013-06-06 17:03:00,75.0,48.0,29.89,NW,310,6.0,-999.0,38,-99.99,,,-99.99,,2013-06-06 22:03:00,
2013-06-06 17:13:00,75.0,48.0,29.89,NW,310,6.0,-999.0,38,-99.99,,,-99.99,,2013-06-06 22:13:00,
2013-06-06 17:23:00,75.0,48.0,29.89,WNW,290,9.0,-999.0,38,-99.99,,,-99.99,,2013-06-06 22:23:00,
2013-06-06 17:33:00,73.0,46.0,29.89,WNW,300,9.0,-999.0,38,-99.99,,,-99.99,,2013-06-06 22:33:00,
2013-06-06 17:43:00,73.0,48.0,29.90,NW,320,8.0,-999.0,40,-99.99,,,-99.99,,2013-06-06 22:43:00,
2013-06-06 17:53:00,75.0,50.0,29.89,NNW,340,9.0,-999.0,41,-99.99,,,-99.99,,2013-06-06 22:53:00,
2013-06-06 18:02:00,75.0,48.0,29.89,NW,320,8.0,-999.0,38,-99.99,,,-99.99,,2013-06-06 23:02:00,
2013-06-06 18:12:00,75.0,48.0,29.89,NW,320,8.0,-999.0,38,-99.99,,,-99.99,,2013-06-06 23:12:00,
2013-06-06 18:22:00,75.0,48.0,29.88,NNW,330,9.0,-999.0,38,-99.99,,,-99.99,,2013-06-06 23:22:00,
2013-06-06 18:33:00,73.0,48.0,29.88,NNW,330,9.0,-999.0,40,-99.99,,,-99.99,,2013-06-06 23:33:00,
2013-06-06 18:42:00,73.0,48.0,29.88,NW,320,12.0,-999.0,40,-99.99,,,-99.99,,2013-06-06 23:42:00,
2013-06-06 18:52:00,72.0,48.0,29.88,NNW,330,9.0,-999.0,43,-99.99,,,-99.99,,2013-06-06 23:52:00,
2013-06-06 19:02:00,72.0,50.0,29.88,NNW,330,9.0,-999.0,46,-99.99,,,-99.99,,2013-06-07 00:02:00,
2013-06-06 19:12:00,72.0,50.0,29.88,NNW,330,9.0,-999.0,46,-99.99,,,-99.99,,2013-06-07 00:12:00,
2013-06-06 19:22:00,70.0,50.0,29.89,NNW,330,6.0,-999.0,49,-99.99,,,-99.99,,2013-06-07 00:22:00,
2013-06-06 19:32:00,70.0,50.0,29.89,NW,320,6.0,-999.0,49,-99.99,,,-99.99,,2013-06-07 00:32:00,
2013-06-06 19:42:00,72.0,52.0,29.89,NW,320,8.0,-999.0,49,-99.99,,,-99.99,,2013-06-07 00:42:00,
2013-06-06 19:52:00,70.0,52.0,29.89,NW,320,7.0,-999.0,52,-99.99,,,-99.99,,2013-06-07 00:52:00,
2013-06-06 20:02:00,70.0,52.0,29.89,NNW,330,7.0,-999.0,52,-99.99,,,-99.99,,2013-06-07 01:02:00,
2013-06-06 20:12:00,70.0,52.0,29.89,NNW,330,7.0,-999.0,52,-99.99,,,-99.99,,2013-06-07 01:12:00,
2013-06-06 20:22:00,68.0,52.0,29.89,NNW,340,5.0,-999.0,56,-99.99,,,-99.99,,2013-06-07 01:22:00,
2013-06-06 20:32:00,68.0,50.0,29.89,NNW,340,5.0,-999.0,52,-99.99,,,-99.99,,2013-06-07 01:32:00,
2013-06-06 20:42:00,68.0,50.0,29.90,North,350,5.0,-999.0,52,-99.99,,,-99.99,,2013-06-07 01:42:00,
2013-06-06 20:52:00,66.0,50.0,29.90,NNW,340,5.0,-999.0,55,-99.99,,,-99.99,,2013-06-07 01:52:00,
2013-06-06 21:02:00,66.0,52.0,29.90,North,350,5.0,-999.0,59,-99.99,,,-99.99,,2013-06-07 02:02:00,
2013-06-06 21:12:00,66.0,52.0,29.90,North,350,5.0,-999.0,59,-99.99,,,-99.99,,2013-06-07 02:12:00,
2013-06-06 21:22:00,66.0,52.0,29.90,North,350,3.0,-999.0,59,-99.99,,,-99.99,,2013-06-07 02:22:00,
2013-06-06 21:32:00,64.0,52.0,29.90,NNW,340,3.0,-999.0,63,-99.99,,,-99.99,,2013-06-07 02:32:00,
2013-06-06 21:42:00,64.0,52.0,29.91,NNW,340,5.0,-999.0,63,-99.99,,,-99.99,,2013-06-07 02:42:00,
2013-06-06 21:52:00,64.0,52.0,29.91,NNW,330,3.0,-999.0,63,-99.99,,,-99.99,,2013-06-07 02:52:00,
2013-06-06 22:02:00,63.0,52.0,29.92,NNW,340,5.0,-999.0,67,-99.99,,,-99.99,,2013-06-07 03:02:00,
2013-06-06 22:12:00,63.0,52.0,29.92,NNW,340,5.0,-999.0,67,-99.99,,,-99.99,,2013-06-07 03:12:00,
2013-06-06 22:22:00,63.0,52.0,29.93,NNW,330,3.0,-999.0,67,-99.99,,,-99.99,,2013-06-07 03:22:00,
2013-06-06 22:33:00,63.0,52.0,29.93,NNW,330,3.0,-999.0,67,-99.99,,,-99.99,,2013-06-07 03:33:00,
2013-06-06 22:43:00,63.0,52.0,29.93,North,0,0.0,-999.0,67,-99.99,,,-99.99,,2013-06-07 03:43:00,
2013-06-06 22:53:00,63.0,52.0,29.93,NW,310,3.0,-999.0,67,-99.99,,,-99.99,,2013-06-07 03:53:00,
2013-06-06 23:03:00,63.0,52.0,29.92,North,0,0.0,-999.0,67,-99.99,,,-99.99,,2013-06-07 04:03:00,
2013-06-06 23:12:00,63.0,52.0,29.92,North,0,0.0,-999.0,67,-99.99,,,-99.99,,2013-06-07 04:12:00,
2013-06-06 23:22:00,61.0,54.0,29.92,North,0,0.0,-999.0,77,-99.99,,,-99.99,,2013-06-07 04:22:00,
2013-06-06 23:33:00,61.0,52.0,29.92,NW,320,3.0,-999.0,72,-99.99,,,-99.99,,2013-06-07 04:33:00,
2013-06-06 23:42:00,61.0,52.0,29.92,NW,320,3.0,-999.0,72,-99.99,,,-99.99,,2013-06-07 04:42:00,
2013-06-06 23:53:00,61.0,52.0,29.92,NNW,330,5.0,-999.0,72,-99.99,,,-99.99,,2013-06-07 04:53:00,